Regional Weather Roundup
Issued by NWS

Home | Current Version | Previous Version | Graphics & Text | Print | Product List | Glossary On
Versions: 1 2 3 4 5 6 7 8 9 10 11 12 13 14 15 16 17 18 19 20 21 22 23 24 25 26 27 28 29 30 31 32 33 34 35 36 37 38 39 40 41 42 43 44 45 46 47 48 49 50
000
ASUS43 KMPX 270910
RWRMN
WEATHER ROUNDUP FOR MINNESOTA
NATIONAL WEATHER SERVICE TWIN CITIES/CHANHASSEN MN
300 AM CST THU NOV 27 2014


NOTE: "FAIR" INDICATES FEW OR NO CLOUDS BELOW 12,000 FEET WITH NO
SIGNIFICANT WEATHER AND/OR OBSTRUCTIONS TO VISIBILITY. N/A MEANS
CURRENT SKY AND/OR WEATHER CONDITIONS ARE NOT AVAILABLE.

MNZ060>063-068>070-271000-
   Twin Cities Metro

CITY           SKY/WX    TMP DP  RH WIND       PRES   REMARKS
TWIN CITIES    CLEAR      4  -4  69 N14       30.46R WCI -14
ST PAUL        CLEAR      5  -3  69 N13       30.48R WCI -12
CRYSTAL        CLEAR      5  -4  66 N10       30.46R WCI -10
BLAINE         CLEAR      3  -2  78 N8        30.45R WCI -10
LAKEVILLE      CLEAR      1  -6  71 NW6       30.43R WCI -10
EDEN PRAIRIE   CLEAR      3  -5  69 N10       30.45R WCI -12
SOUTH ST PAUL  CLEAR      6  -3  66 N9        30.45S WCI  -7
LAKE ELMO      FAIR       5   0  78 N8        30.45R WCI  -8
$$
MNZ001>005-007-008-013>017-022>024-027-028-271000-
   Northwest Minnesota

CITY           SKY/WX    TMP DP  RH WIND       PRES   REMARKS
BEMIDJI        PTCLDY   -14 -18  80 W5        30.46S WCI -26
HALLOCK        PTCLDY   -15 -20  76 CALM      30.54F
ROSEAU         FAIR     -11 -17  77 W3        30.51S
WARROAD        PTCLDY   -13 -18  77 W3        30.50S
THIEF RVR FALL PTCLDY   -11 -13  92 CALM      30.51S
CROOKSTON      PTCLDY    -9 -15  77 CALM      30.56F
FOSSTON        PTCLDY   -18 -24  76 CALM      30.51R
DETROIT LAKES  PTCLDY    -9 -13  84 CALM      30.48F
MOORHEAD       CLEAR    -11 -15  84 CALM      30.55R
PARK RAPIDS    PTCLDY   -14 -18  82 W6        30.46R WCI -28
MAHNOMEN       FAIR     -12 -17  81 CALM      30.50F
$$
MNZ006-009>011-018-025>026-271000-
   North Central Minnesota

CITY           SKY/WX    TMP DP  RH WIND       PRES   REMARKS
BAUDETTE       PTCLDY   -12 -17  78 W5        30.47R WCI -24
FLAG ISLAND    PTCLDY   -15 -18  84 NW5       30.48S WCI -27
INTL FALLS     PTCLDY   -16 -22  74 NW3       30.45R
WASKISH        MOCLDY    -9 -13  84 CALM      30.48R
BIG FORK       PTCLDY   -11 -17  77 CALM      30.44S
LONGVILLE      FAIR      -8 -11  84 NW3       30.46R
GRAND RAPIDS   CLEAR     -8 -11  84 NW7       30.42R WCI -22
CRANE LAKE     CLEAR    -11 -15  84 CALM      30.45F
ORR            PTCLDY   -15 -20  76 CALM      30.39R
COOK           PTCLDY   -18 -24  76 CALM      30.41S
WALKER         FAIR     -12 -17  80 W3        30.47R
$$
MNZ012-019>021-037-271000-
   Northeast Minnesota

CITY           SKY/WX    TMP DP  RH WIND       PRES   REMARKS
DULUTH         CLEAR     -6 -11  79 NW5       30.37R WCI -17
ELY            CLEAR    -13 -17  84 CALM      30.38S
HIBBING        CLEAR     -8 -14  74 NW9       30.41R WCI -25
EVELETH        CLEAR     -4 -11  71 N5        30.40S WCI -15
DULUTH HARBOR  CLEAR      3  -6  66 NW6       30.48R WCI  -8
TWO HARBORS    CLEAR      0  -8  71 N7        30.37S WCI -13
SILVER BAY     CLEAR     -2  -9  71 CALM      30.37S
GRAND MARAIS     N/A     -2 -11  65 N16G30    30.39R WCI -23
G MARAIS ARPRT CLEAR    -11 -18  70 N8        30.28S WCI -28
$$
MNZ029>031-032-039>041-046>048-054>057-064-271000-
   West Central Minnesota

CITY           SKY/WX    TMP DP  RH WIND       PRES   REMARKS
FERGUS FALLS   PTCLDY    -8 -15  71 N3        30.55S
WHEATON        MOCLDY    -9 -13  84 W3        30.56S
MORRIS         FAIR      -9 -13  84 NW7       30.50S WCI -24
ALEXANDRIA     CLEAR     -4  -9  79 N7        30.46F WCI -18
ELBOW LAKE     FAIR      -8 -12  83 W5        30.50R WCI -20
WADENA         CLEAR     -9 -13  84 NW6       30.47S WCI -23
GLENWOOD       CLEAR     -6  -9  84 N6        30.47S WCI -18
APPLETON       PTCLDY    -6 -11  77 NW8       30.54R WCI -21
BENSON         PTCLDY    -9 -15  77 CALM      30.51R
ORTONVILLE     PTCLDY    -6 -11  77 NW6       30.53R WCI -18
MADISON        PTCLDY    -4  -9  77 NW7       30.54S WCI -18
WILLMAR        FAIR      -4  -9  77 W6        30.50R WCI -16
$$
MNZ033>034-036-042>043-049>051-058-059-271000-
   Central Minnesota

CITY           SKY/WX    TMP DP  RH WIND       PRES   REMARKS
ST CLOUD       CLEAR     -1  -8  72 NW7       30.48R WCI -14
SAUK CENTRE    FAIR      -6 -10  81 N8        30.48S WCI -21
PAYNESVILLE    CLEAR     -7 -11  83 NW7       30.49R WCI -21
AITKIN         CLEAR     -2  -9  71 CALM      30.44S
PINE RIVER     CLEAR     -9 -11  92 CALM      30.49S
BRAINERD       CLEAR     -5  -9  83 NW6       30.47R WCI -18
STAPLES        PTCLDY    -8 -11  84 NW7       30.48R WCI -22
LONG PRAIRIE   FAIR      -6  -9  84 NW7       30.47S WCI -20
LITTLE FALLS   CLEAR     -4  -9  77 W6        30.50R WCI -16
LITCHFIELD     CLEAR     -2  -6  84 N9        30.48S WCI -18
BUFFALO        CLEAR      1  -5  75 NW8       30.49R WCI -13
MAPLE LAKE     CLEAR      1  -4  80 NW6       30.49R WCI -11
$$
MNZ037-044-045-052-053-271000-
   East Central Minnesota

CITY           SKY/WX    TMP DP  RH WIND       PRES   REMARKS
PRINCETON      CLEAR      0  -6  78 CALM      30.46S
MORA           CLEAR      0  -8  71 N5        30.47S WCI -10
CAMBRIDGE      CLEAR      1  -8  66 NW5       30.45S WCI  -8
RUSH CITY      MOCLDY     1  -5  78 N7        30.46S WCI -12
MOOSE LAKE     CLEAR     -2  -8  78 NW5       30.43S WCI -12
HINCKLEY       FAIR       1  -4  78 CALM      30.45S
CLOQUET        CLEAR     -6  -9  84 W6        30.40R WCI -18
MCGREGOR       CLEAR     -4  -8  84 NW5       30.45R WCI -15
$$
MNZ071>073-080-081-089-090-097-098-271000-
   Southwest Minnesota

CITY           SKY/WX    TMP DP  RH WIND       PRES   REMARKS
MONTEVIDEO     PTCLDY    -6  -9  84 N6        30.54R WCI -18
GRANITE FALLS  PTCLDY    -6 -10  81 NW9       30.54S WCI -22
CANBY          PTCLDY    -7 -10  84 NW7       30.53S WCI -21
MARSHALL       PTCLDY    -6 -11  77 NW10      30.50R WCI -23
REDWOOD FALLS  PTCLDY    -4  -9  79 NW10      30.51S WCI -21
OLIVIA         PTCLDY    -2  -8  78 NW8       30.51R WCI -17
PIPESTONE      PTCLDY    -2  -9  71 N7        30.44S WCI -16
WINDOM         PTCLDY    -4  -9  77 NW13      30.46S WCI -23
WORTHINGTON    PTCLDY    -6  -9  84 N8        30.45S WCI -21
JACKSON        PTCLDY    -2  -8  78 NW13      30.45R WCI -21
TRACY          PTCLDY    -4  -8  81 NW10      30.49S WCI -21
SLAYTON        PTCLDY    -4  -9  81 NW8       30.46S WCI -20
$$
MNZ065>067-074>077-082>085-091>093-271000-
   South Central Minnesota

CITY           SKY/WX    TMP DP  RH WIND       PRES   REMARKS
MANKATO        PTCLDY     0  -9  65 NW10      30.45S WCI -17
NEW ULM        PTCLDY    -6  -9  84 NW12      30.48S WCI -24
ST JAMES       PTCLDY    -4  -9  77 NW13      30.48S WCI -23
FAIRMONT       PTCLDY    -2  -9  71 NW16      30.44R WCI -23
GLENCOE        PTCLDY     0  -5  78 NW6       30.47R WCI -11
FARIBAULT      PTCLDY     3  -6  66 NW7       30.42R WCI  -9
OWATONNA       PTCLDY     0  -8  71 W8        30.41R WCI -15
WASECA         CLEAR      0  -8  71 NW10      30.44S WCI -17
ALBERT LEA     CLEAR      3  -2  78 NW8       30.40R WCI -10
$$
MNZ078>079-086>088-094>096-271000-
   Southeast Minnesota

CITY           SKY/WX    TMP DP  RH WIND       PRES   REMARKS
ROCHESTER      PTCLDY    11   3  70 N18       30.35S WCI  -7
RED WING         N/A      9  -2  61 N8        30.42R WCI  -4
STANTON        CLEAR      6  -3  67 N10       30.42R WCI  -9
DODGE CENTER   PTCLDY     7   1  78 NW10      30.37R WCI  -8
WINONA         FLURRIES  19  14  79 NW14      30.38R WCI   6
AUSTIN         PTCLDY     9   0  66 NW12      30.38R WCI  -6
PRESTON        FLURRIES  13   9  84 N13       30.34R WCI  -2
$$
ABBREVIATIONS USED IN REMARKS
   TC - TEMPERATURES IN CELSIUS
  WCI - WIND CHILL INDEX
   HX - HEAT INDEX
  VSB - VISIBILITY
$$



USA.gov is the U.S. government's official web portal to all federal, state and local government web resources and services.